Date String (YYYY-MM-DD hh:mm:ss) UTC,Instrument flags,Ambient pressure (hPa),Sample flow (lpm),Bypass flow (lpm),Sample temperature (°C),Ambient temperature (°C),ASC tube jacket temperature (°C),LED temperature (°C),Box temperature (°C),Sample RH (%),Span deviation,Mass concentration (μg/m³),Mass concentration (μg/m³),Mass concentration (μg/m³)
DateTimeUTC,F1_M11,P_M11,Q1_M11,Q2_M11,T1_M11,T2_M11,T3_M11,T4_M11,T5_M11,U1_M11,ZSPAN_M11,X0_M11,X2_M11,X1_M11
2021-10-09 12:00:00,,0820.2,4.99,0.00,29.9,29.2,00.0,39.0,31.7,17.9,0000.0,0008.03,0003.13,0002.17
2021-10-09 12:01:00,,0820.2,5.00,0.00,30.0,29.2,00.0,39.0,31.7,17.6,0000.0,0008.34,0003.12,0002.15
2021-10-09 12:02:00,,0820.0,5.01,0.00,30.0,29.2,00.0,39.0,31.7,17.6,0000.0,0009.13,0003.12,0002.12
2021-10-09 12:03:00,,0820.0,4.99,0.00,30.0,29.2,00.0,39.0,31.7,17.6,0000.0,0009.47,0003.11,0002.10
2021-10-09 12:04:00,,0820.0,5.00,0.00,30.0,29.2,00.0,39.0,31.8,17.5,0000.0,0008.93,0002.96,0002.05
2021-10-09 12:05:00,,0820.0,5.00,0.00,30.0,29.3,00.0,39.1,31.8,17.7,0000.0,0008.92,0002.91,0002.02
2021-10-09 12:06:00,,0820.1,5.00,0.00,30.0,29.3,00.0,39.1,31.8,17.6,0000.0,0008.87,0002.85,0001.98
2021-10-09 12:07:00,,0820.2,5.00,0.00,30.0,29.3,00.0,39.1,31.8,17.4,0000.0,0008.68,0002.74,0001.92
2021-10-09 12:08:00,,0820.2,5.00,0.00,30.1,29.3,00.0,39.1,31.8,17.1,0000.0,0008.50,0002.59,0001.84
2021-10-09 12:09:00,,0820.2,5.00,0.00,30.1,29.3,00.0,39.1,31.8,17.3,0000.0,0008.28,0002.44,0001.75
2021-10-09 12:10:00,,0820.2,5.01,0.00,30.1,29.3,00.0,39.1,31.8,17.9,0000.0,0007.77,0002.36,0001.73
2021-10-09 12:11:00,,0820.3,5.00,0.00,30.1,29.3,00.0,39.1,31.9,17.7,0000.0,0008.22,0002.26,0001.67
2021-10-09 12:12:00,,0820.3,5.00,0.00,30.1,29.3,00.0,39.2,31.9,18.0,0000.0,0008.35,0002.24,0001.67
2021-10-09 12:13:00,,0820.3,4.99,0.00,30.1,29.3,00.0,39.2,31.9,17.7,0000.0,0007.99,0002.25,0001.66
2021-10-09 12:14:00,,0820.3,4.99,0.00,30.1,29.3,00.0,39.2,31.9,17.4,0000.0,0006.82,0002.24,0001.64
2021-10-09 12:15:00,,0820.3,5.00,0.00,30.1,29.3,00.0,39.2,31.8,17.2,0000.0,0006.60,0002.21,0001.61
2021-10-09 12:16:00,,0820.2,5.01,0.00,30.1,29.3,00.0,39.2,31.8,17.2,0000.0,0006.41,0002.15,0001.56
2021-10-09 12:17:00,,0820.3,4.99,0.00,30.1,29.3,00.0,39.2,31.9,17.4,0000.0,0006.16,0002.06,0001.51
2021-10-09 12:18:00,,0820.3,5.00,0.00,30.1,29.3,00.0,39.2,31.9,17.4,0000.0,0006.16,0002.00,0001.46
2021-10-09 12:19:00,,0820.3,5.00,0.00,30.1,29.3,00.0,39.2,31.9,17.4,0000.0,0006.22,0002.00,0001.42
2021-10-09 12:20:00,,0820.4,5.00,0.00,30.1,29.3,00.0,39.2,31.8,17.4,0000.0,0006.21,0001.97,0001.38
2021-10-09 12:21:00,,0820.4,5.01,0.00,30.1,29.3,00.0,39.2,31.8,17.4,0000.0,0006.08,0001.82,0001.27
2021-10-09 12:22:00,,0820.5,5.00,0.00,30.1,29.3,00.0,39.2,31.8,17.4,0000.0,0004.70,0001.73,0001.19
2021-10-09 12:23:00,,0820.5,4.99,0.00,30.1,29.3,00.0,39.2,31.8,17.2,0000.0,0003.45,0001.58,0001.08
2021-10-09 12:24:00,,0820.6,5.00,0.00,30.1,29.2,00.0,39.2,31.7,17.2,0000.0,0002.63,0001.44,0000.98
2021-10-09 12:25:00,,0820.5,5.01,0.00,30.1,29.2,00.0,39.2,31.8,17.2,0000.0,0002.42,0001.31,0000.88
2021-10-09 12:26:00,,0820.6,5.01,0.00,30.1,29.2,00.0,39.2,31.7,17.1,0000.0,0003.53,0001.22,0000.81
2021-10-09 12:27:00,,0820.6,5.00,0.00,30.1,29.2,00.0,39.2,31.7,17.1,0000.0,0003.52,0001.16,0000.75
2021-10-09 12:28:00,,0820.6,5.00,0.00,30.1,29.1,00.0,39.2,31.8,17.2,0000.0,0003.72,0001.07,0000.68
2021-10-09 12:29:00,,0820.5,5.00,0.00,30.1,29.1,00.0,39.2,31.7,17.3,0000.0,0004.18,0001.00,0000.63
2021-10-09 12:30:00,,0820.6,5.01,0.00,30.1,29.1,00.0,39.2,31.8,17.3,0000.0,0004.06,0000.93,0000.60
2021-10-09 12:31:00,,0820.5,5.00,0.00,30.1,29.1,00.0,39.2,31.8,17.3,0000.0,0003.93,0000.87,0000.58
2021-10-09 12:32:00,,0820.5,4.99,0.00,30.1,29.1,00.0,39.2,31.7,17.3,0000.0,0003.85,0000.86,0000.56
2021-10-09 12:33:00,,0820.4,5.01,0.00,30.1,29.1,00.0,39.2,31.7,17.2,0000.0,0003.77,0000.82,0000.55
2021-10-09 12:34:00,,0820.4,5.00,0.00,30.1,29.1,00.0,39.2,31.7,17.3,0000.0,0003.74,0000.81,0000.54
2021-10-09 12:35:00,,0820.4,5.01,0.00,30.1,29.1,00.0,39.2,31.8,17.3,0000.0,0003.57,0000.76,0000.53
2021-10-09 12:36:00,,0820.5,4.99,0.00,30.1,29.1,00.0,39.2,31.7,17.2,0000.0,0003.47,0000.74,0000.53
2021-10-09 12:37:00,,0820.5,5.00,0.00,30.1,29.1,00.0,39.2,31.7,17.2,0000.0,0002.12,0000.73,0000.53
2021-10-09 12:38:00,,0820.6,4.99,0.00,30.1,29.1,00.0,39.2,31.7,17.2,0000.0,0002.25,0000.75,0000.53
2021-10-09 12:39:00,,0820.5,5.00,0.00,30.1,29.1,00.0,39.2,31.7,17.2,0000.0,0002.01,0000.77,0000.53
2021-10-09 12:40:00,,0820.6,5.00,0.00,30.1,29.1,00.0,39.2,31.7,17.0,0000.0,0001.41,0000.76,0000.53
2021-10-09 12:41:00,,0820.6,5.00,0.00,30.0,29.1,00.0,39.2,31.7,17.0,0000.0,0001.39,0000.76,0000.52
2021-10-09 12:42:00,,0820.6,5.00,0.00,30.0,29.0,00.0,39.2,31.7,17.2,0000.0,0001.41,0000.77,0000.52
2021-10-09 12:43:00,,0820.6,5.00,0.00,30.0,29.0,00.0,39.2,31.7,17.4,0000.0,0001.51,0000.79,0000.51
2021-10-09 12:44:00,,0820.6,4.99,0.00,30.0,29.0,00.0,39.2,31.7,17.5,0000.0,0001.49,0000.77,0000.50
2021-10-09 12:45:00,,0820.6,5.00,0.00,30.0,29.0,00.0,39.2,31.7,17.5,0000.0,0001.59,0000.78,0000.49
2021-10-09 12:46:00,,0820.6,5.01,0.00,30.0,29.0,00.0,39.2,31.6,17.5,0000.0,0001.68,0000.80,0000.49
2021-10-09 12:47:00,,0820.6,5.00,0.00,30.0,29.0,00.0,39.2,31.6,17.6,0000.0,0001.72,0000.81,0000.47
2021-10-09 12:48:00,,0820.6,4.99,0.00,30.0,29.0,00.0,39.2,31.6,17.6,0000.0,0001.74,0000.81,0000.47
2021-10-09 12:49:00,,0820.6,5.00,0.00,29.9,28.9,00.0,39.2,31.5,17.6,0000.0,0001.56,0000.77,0000.46
2021-10-09 12:50:00,,0820.6,5.02,0.00,29.9,28.9,00.0,39.2,31.5,17.7,0000.0,0001.50,0000.74,0000.45
2021-10-09 12:51:00,,0820.6,4.99,0.00,29.9,28.9,00.0,39.2,31.4,17.7,0000.0,0002.32,0000.73,0000.44
2021-10-09 12:52:00,,0820.6,5.01,0.00,29.8,28.9,00.0,39.1,31.4,17.7,0000.0,0002.34,0000.72,0000.44
2021-10-09 12:53:00,,0820.6,4.99,0.00,29.8,28.8,00.0,39.1,31.4,17.7,0000.0,0003.06,0000.72,0000.44
2021-10-09 12:54:00,,0820.6,4.99,0.00,29.8,28.8,00.0,39.1,31.4,17.6,0000.0,0003.12,0000.73,0000.45
2021-10-09 12:55:00,,0820.7,5.01,0.00,29.8,28.8,00.0,39.1,31.4,17.5,0000.0,0003.38,0000.81,0000.45
2021-10-09 12:56:00,,0820.6,4.99,0.00,29.8,28.8,00.0,39.1,31.4,17.5,0000.0,0003.31,0000.80,0000.44
2021-10-09 12:57:00,,0820.6,4.99,0.00,29.8,28.8,00.0,39.1,31.4,17.6,0000.0,0003.25,0000.78,0000.43
2021-10-09 12:58:00,,0820.6,5.01,0.00,29.8,28.8,00.0,39.1,31.4,17.6,0000.0,0003.25,0000.78,0000.43
2021-10-09 12:59:00,,0820.6,4.98,0.00,29.8,28.8,00.0,39.1,31.5,17.5,0000.0,0003.25,0000.78,0000.43
